Wind_Speed
3 3 3 3 4 4 5 4 4 3 3 3 3 3 4 3 4 4 4 4 4 3 3 3 3 3 3 3 3 3 3 3 4 4 5 5 5 5 5 6 5 5 5 4 4 4 4 4 4
3 3 3 4 4 4 5 4 3 3 2 3 3 3 4 3 4 3 4 4 4 4 4 4 4 4 4 4 4 4 4 4 4 5 5 6 6 6 6 6 6 6 6 5 5 5 5 5 5
4 3 4 5 5 4 4 3 3 2 2 2 2 3 3 3 3 4 4 4 5 5 5 5 5 5 6 6 6 5 5 5 4 5 6 7 7 7 7 7 7 7 7 7 7 7 6 6 7
3 3 4 5 4 3 3 2 2 2 1 2 2 2 2 2 3 4 4 4 5 5 5 6 6 6 6 7 6 6 6 6 6 6 7 7 8 8 8 7 8 7 8 8 8 7 8 7 8
3 4 4 4 3 3 3 2 2 1 1 1 1 2 2 2 2 3 3 3 4 4 5 5 6 6 7 7 8 8 8 7 7 8 8 8 9 8 8 8 8 8 9 9 9 8 8 9 10
4 4 4 4 3 3 3 2 2 1 2 2 2 2 2 2 2 2 3 3 3 4 5 6 6 7 7 7 8 9 8 9 9 8 9 9 9 9 9 9 9 9 9 9 9 9 9 9 11
4 4 4 3 2 2 2 2 2 1 2 2 2 3 3 3 3 3 4 4 4 4 5 6 6 7 8 8 8 9 8 9 9 9 9 9 9 10 10 10 9 9 9 8 8 9 10 10 10
4 4 4 3 2 2 2 1 1 1 1 2 2 2 3 3 3 4 5 5 4 5 5 6 6 7 8 8 9 9 9 9 9 10 9 9 10 10 10 10 10 10 9 9 9 10 10 10 10
4 4 4 3 2 3 2 1 2 1 1 2 2 2 2 3 4 4 5 5 4 4 5 6 6 7 7 8 8 9 9 10 10 9 9 9 9 10 10 10 10 10 10 10 9 10 9 9 10
4 4 3 3 3 3 3 3 2 2 2 2 2 2 2 3 4 4 4 4 4 5 5 6 7 7 8 8 9 9 9 10 10 9 10 10 9 9 9 9 10 10 10 10 9 9 9 9 9
4 4 3 3 3 3 3 3 3 3 3 2 3 3 2 3 4 4 4 4 5 5 6 6 7 8 8 8 8 9 9 9 9 9 9 9 9 9 9 9 9 10 10 10 10 10 9 9 9
4 4 4 4 4 4 4 4 4 4 3 3 3 3 3 3 4 4 4 5 6 6 6 7 7 7 8 8 8 8 8 8 8 8 8 8 8 8 8 9 9 9 9 9 9 9 9 9 9
4 4 3 3 4 4 5 4 4 4 4 4 4 4 3 4 5 5 5 5 6 6 7 7 7 7 7 6 6 7 7 7 7 7 8 8 8 8 8 8 9 9 9 8 8 8 8 8 9
4 4 4 4 4 4 5 5 4 4 5 5 5 5 5 5 5 6 6 6 6 7 7 6 6 6 6 6 6 6 7 7 7 7 7 8 8 8 8 8 9 9 9 8 8 8 8 9 9
5 5 4 4 5 5 5 6 6 6 6 5 5 5 5 6 6 6 6 6 6 6 7 7 7 6 6 6 6 7 7 7 7 7 7 8 8 8 9 9 9 9 9 9 9 10 10 10 10
6 6 6 5 6 6 6 6 6 6 6 6 6 6 6 7 7 7 7 6 7 7 6 7 7 6 6 7 7 7 7 7 7 7 8 8 9 9 9 9 10 10 10 10 10 10 10 10 10
7 6 6 6 6 6 7 6 6 6 7 7 7 7 7 7 7 7 7 7 7 7 6 6 7 7 7 7 7 8 7 7 8 8 8 9 9 10 10 10 10 10 10 10 11 11 11 11 11
7 7 6 6 6 7 7 7 7 7 8 8 8 8 8 8 7 7 7 8 8 7 7 6 7 7 7 8 8 8 8 8 8 8 8 9 9 10 11 11 11 11 11 11 11 11 11 11 11
7 7 7 7 7 8 8 8 8 8 9 9 9 9 9 8 8 8 8 9 9 8 8 8 7 7 7 7 8 8 8 9 9 9 9 9 10 11 11 11 11 11 12 12 12 12 12 12 12
9 9 9 8 8 9 9 9 9 9 9 10 9 10 10 9 9 9 9 10 10 10 9 9 9 9 9 8 8 9 9 9 9 9 10 11 11 11 12 12 12 12 13 13 13 13 13 13 12
10 9 10 10 10 11 11 10 10 10 10 10 10 10 10 10 10 10 10 11 10 10 10 10 10 10 10 10 10 10 10 10 11 11 11 11 12 12 12 12 12 13 13 13 13 14 13 13 13
10 9 9 11 12 12 12 11 11 10 10 10 10 10 10 11 12 12 12 12 11 11 11 11 11 11 11 11 11 11 11 11 12 12 12 13 13 13 13 13 13 13 13 13 13 14 14 14 14
10 10 10 11 12 12 12 12 11 11 10 10 11 11 11 11 12 13 13 12 12 12 12 12 12 12 12 12 12 12 12 12 13 13 14 14 14 14 14 14 14 14 14 14 14 14 14 15 15
11 11 12 12 12 12 11 11 11 10 10 11 11 11 11 11 12 13 13 13 13 13 13 13 13 13 13 13 13 13 13 14 14 15 15 15 15 15 15 15 15 15 15 15 15 15 16 15 15
11 11 12 13 13 12 11 11 11 10 10 10 11 12 11 12 13 13 14 14 14 14 14 14 15 15 15 15 15 14 15 15 16 16 16 16 16 16 16 16 16 17 17 16 16 16 16 16 16
11 12 13 14 14 13 12 12 11 11 10 11 11 12 12 12 13 13 14 14 15 15 15 15 16 16 16 16 16 16 16 17 17 17 17 18 18 18 17 17 17 17 17 18 17 17 17 17 17
12 13 14 15 15 15 13 12 12 11 11 11 11 12 12 13 13 14 14 15 16 16 16 16 17 18 18 18 18 19 18 19 19 19 19 20 20 20 19 19 19 19 19 19 19 19 19 19 19
13 14 15 14 15 15 14 13 12 12 12 13 13 14 14 14 14 15 16 16 17 17 17 18 18 18 19 19 20 20 21 21 21 21 21 21 21 21 21 21 21 21 21 20 20 20 20 20 20
14 15 16 17 16 17 17 15 14 14 15 15 15 16 16 16 16 16 16 17 17 19 19 19 20 20 21 20 21 22 22 23 23 23 23 23 23 22 22 22 22 22 22 22 22 22 21 21 21
16 16 16 18 18 19 20 18 17 17 18 18 18 18 18 18 18 18 18 18 18 19 20 21 21 22 22 23 23 23 23 24 24 24 24 24 24 24 24 25 24 24 24 24 24 23 23 23 23
Wind_Direction
223 226 228 231 232 230 234 239 233 228 221 222 233 241 242 245 245 236 228 228 239 236 243 248 251 259 269 272 276 284 284 285 271 260 253 255 254 258 264 267 269 267 261 269 274 277 276 279 272
234 238 240 239 238 238 229 226 229 213 199 199 217 232 240 249 248 239 231 229 239 245 251 258 260 263 270 272 268 269 274 279 274 265 257 260 262 261 266 269 270 269 263 270 272 272 277 281 281
234 243 242 240 236 229 225 220 219 210 188 185 214 238 247 246 242 244 244 246 248 254 257 262 266 266 267 270 270 264 263 267 267 265 261 266 264 267 270 267 271 271 272 273 270 274 278 276 277
237 244 241 235 228 223 222 210 206 208 215 211 226 252 254 244 240 249 248 255 259 260 260 262 265 266 266 267 268 269 269 267 262 264 266 270 269 272 270 267 266 268 275 275 273 274 276 274 276
234 241 242 235 235 230 228 221 223 203 235 237 246 256 261 252 248 247 248 257 263 263 264 266 269 268 266 267 268 268 269 266 265 265 268 270 269 267 269 270 267 269 275 276 275 273 276 277 276
233 240 242 245 248 234 229 230 226 230 256 250 260 264 264 255 257 253 253 259 265 267 271 272 270 270 269 267 268 269 271 272 271 270 271 270 267 264 266 271 271 274 274 272 271 270 274 276 276
227 231 241 246 249 247 242 239 238 245 266 264 269 270 272 267 264 264 267 275 274 274 277 279 276 275 273 269 273 270 270 271 272 273 273 272 268 267 268 273 274 273 271 271 272 276 275 276 274
220 234 240 247 244 243 240 241 246 247 277 284 283 278 279 272 272 271 271 277 281 281 281 282 284 280 280 278 275 273 269 270 271 271 273 275 271 268 270 274 274 271 267 270 274 278 278 277 276
225 230 236 240 241 250 249 270 273 282 280 291 288 289 287 284 282 284 280 284 288 286 284 284 287 285 282 280 276 273 272 272 271 269 271 273 270 268 272 274 276 276 276 272 276 278 278 277 278
217 223 231 236 242 253 262 265 273 278 278 276 274 279 278 281 285 288 287 287 293 292 291 288 288 287 283 281 278 273 271 272 270 268 268 270 271 273 274 276 278 279 280 278 284 284 284 283 279
219 223 229 235 247 256 260 266 273 276 273 269 267 278 281 279 281 285 288 288 288 289 291 295 295 291 286 283 279 273 269 269 270 271 272 275 276 278 277 281 282 283 285 286 290 291 291 292 288
227 232 239 250 260 263 264 269 272 277 274 266 273 283 290 283 278 280 283 285 288 289 291 294 291 288 288 286 280 274 269 267 269 273 275 278 277 277 276 279 280 282 286 290 291 293 294 293 291
229 236 239 244 255 266 272 271 271 269 272 268 275 284 288 281 277 280 284 284 289 291 293 295 296 292 294 291 284 272 268 269 270 271 274 276 276 277 276 279 283 286 289 292 293 293 294 294 290
234 243 248 251 255 260 266 266 264 265 269 271 276 285 285 286 285 284 286 288 288 290 293 295 297 298 294 289 279 275 270 269 270 271 274 275 273 272 274 279 285 286 286 288 288 287 288 287 284
243 250 245 248 255 257 263 266 270 271 273 276 278 287 286 288 291 291 290 287 287 290 296 298 298 302 296 287 280 274 268 271 273 273 273 276 278 280 280 283 284 283 281 283 285 284 285 285 286
245 251 251 248 249 255 266 267 271 273 274 275 280 287 287 287 290 290 290 289 286 288 291 292 293 295 293 289 287 281 274 276 279 279 278 279 279 281 284 288 289 286 282 284 284 284 283 282 284
255 256 258 254 253 257 265 265 267 272 272 273 279 285 285 287 290 288 287 289 289 290 290 289 290 289 288 288 288 284 278 279 282 282 284 285 283 282 282 286 287 286 285 284 283 284 283 281 282
256 259 263 260 257 262 266 271 270 272 272 274 278 285 287 285 284 282 282 283 286 288 295 293 293 296 293 287 288 284 283 282 281 279 282 286 285 282 282 285 284 284 285 285 284 285 286 284 283
258 263 265 265 265 268 271 274 272 271 269 271 274 279 280 280 277 276 277 277 281 285 288 290 291 293 293 293 291 289 287 284 282 280 281 287 287 284 282 283 282 282 283 282 283 284 287 287 284
267 267 268 270 270 272 271 272 271 267 270 273 275 276 270 271 275 274 275 275 277 282 285 287 289 289 288 288 289 290 287 283 280 280 284 286 289 288 284 282 281 281 281 281 282 283 286 287 287
269 269 267 270 272 275 275 274 275 272 272 276 278 278 268 268 271 275 275 273 274 277 278 280 284 286 285 283 283 284 284 281 279 281 282 285 288 288 286 284 284 282 282 283 284 285 288 288 287
273 271 269 269 272 275 276 274 275 275 274 277 278 280 273 273 271 275 275 273 272 273 273 276 278 281 283 283 282 283 285 284 282 281 282 284 287 289 287 285 286 286 282 284 285 285 287 288 287
271 269 269 271 272 273 276 277 279 278 277 278 280 279 275 274 271 271 272 273 273 273 274 275 275 276 279 281 283 283 284 284 283 283 283 285 287 289 288 287 287 287 285 284 285 285 286 288 288
268 266 268 271 274 275 280 282 279 279 281 278 277 278 276 275 274 272 271 272 274 274 274 274 274 274 276 279 281 281 282 283 283 282 283 284 286 287 286 286 286 286 285 284 284 283 285 287 287
264 266 271 272 274 279 279 279 283 281 280 279 280 282 278 273 273 272 272 272 273 273 274 274 273 274 276 278 279 280 281 282 283 281 281 281 282 282 283 283 283 284 285 284 283 283 284 285 285
265 268 272 276 276 279 277 278 284 285 279 281 282 282 280 275 274 273 271 271 272 272 273 273 274 273 276 278 279 278 279 281 282 281 279 279 279 279 280 280 281 281 281 282 282 283 282 284 284
269 270 272 274 278 276 278 281 279 281 281 282 282 281 281 275 274 275 272 268 270 270 272 273 275 276 277 278 278 278 277 278 280 280 279 279 279 279 280 279 279 279 280 279 279 281 282 284 284
268 269 270 273 276 280 283 284 284 280 280 281 283 282 281 280 275 273 272 271 270 269 271 273 275 277 278 277 277 277 277 277 277 277 277 277 277 277 279 279 279 279 278 277 277 278 279 281 283
264 266 268 271 274 279 282 284 285 284 283 281 279 282 283 283 280 276 276 275 274 271 271 273 276 278 279 279 278 277 277 276 275 275 274 275 275 275 276 278 278 279 278 277 277 276 277 278 279
265 267 269 270 273 276 279 281 282 283 284 283 282 282 280 280 280 279 277 276 274 273 273 275 276 278 279 279 279 278 277 276 275 275 274 274 275 275 275 276 276 276 276 275 275 276 276 276 276
Height
5868 5868 5869 5870 5871 5871 5870 5871 5871 5871 5872 5872 5872 5873 5874 5875 5876 5879 5877 5876 5876 5877 5877 5877 5877 5877 5877 5877 5877 5877 5877 5876 5876 5876 5876 5876 5876 5876 5876 5875 5875 5875 5875 5874 5874 5874 5874 5874 5873
5867 5868 5870 5870 5869 5869 5870 5870 5870 5870 5871 5871 5872 5872 5873 5873 5874 5875 5874 5875 5875 5876 5876 5876 5876 5876 5876 5876 5876 5876 5876 5876 5876 5876 5875 5875 5875 5875 5875 5874 5874 5874 5874 5874 5873 5873 5873 5873 5872
5867 5868 5869 5869 5868 5869 5870 5869 5869 5870 5870 5871 5871 5872 5872 5873 5873 5873 5874 5874 5874 5875 5875 5875 5875 5875 5875 5876 5876 5875 5875 5875 5875 5875 5875 5875 5875 5874 5874 5874 5873 5873 5873 5872 5872 5872 5872 5872 5872
5867 5868 5869 5869 5868 5868 5868 5868 5869 5869 5870 5870 5871 5871 5871 5872 5872 5872 5872 5873 5873 5873 5874 5874 5874 5874 5874 5874 5875 5874 5874 5874 5874 5874 5874 5874 5874 5873 5872 5872 5872 5872 5871 5871 5871 5871 5871 5871 5870
5867 5867 5868 5867 5867 5868 5867 5868 5868 5869 5869 5870 5870 5870 5870 5871 5871 5871 5871 5872 5872 5872 5872 5873 5873 5873 5873 5873 5873 5873 5873 5873 5873 5873 5873 5872 5872 5872 5871 5871 5871 5870 5870 5870 5869 5869 5869 5869 5869
5867 5867 5867 5867 5867 5867 5867 5867 5868 5869 5868 5869 5869 5870 5870 5870 5870 5870 5870 5871 5871 5871 5871 5872 5872 5872 5872 5872 5872 5872 5872 5872 5872 5871 5871 5871 5871 5871 5870 5870 5869 5869 5868 5868 5868 5868 5868 5867 5867
5867 5867 5866 5866 5866 5866 5866 5867 5867 5868 5868 5869 5869 5869 5869 5869 5869 5869 5869 5870 5870 5870 5870 5870 5870 5870 5870 5870 5870 5870 5870 5870 5870 5870 5869 5869 5869 5869 5868 5868 5868 5867 5867 5866 5866 5866 5866 5865 5865
5866 5867 5865 5866 5866 5866 5866 5866 5867 5867 5868 5868 5868 5868 5868 5868 5868 5868 5868 5869 5869 5869 5869 5869 5869 5868 5868 5868 5868 5868 5868 5868 5868 5868 5867 5867 5867 5867 5867 5866 5866 5866 5865 5865 5864 5864 5864 5863 5863
5865 5867 5865 5865 5866 5866 5866 5866 5866 5867 5867 5867 5867 5867 5867 5867 5867 5867 5867 5867 5868 5867 5867 5867 5867 5867 5866 5866 5866 5866 5866 5866 5865 5865 5865 5865 5865 5865 5865 5865 5864 5864 5863 5863 5862 5862 5862 5861 5861
5864 5865 5865 5865 5865 5865 5865 5865 5866 5866 5866 5866 5866 5866 5866 5866 5866 5866 5866 5866 5867 5866 5866 5866 5865 5865 5864 5864 5863 5863 5863 5863 5863 5863 5863 5863 5863 5863 5863 5862 5862 5862 5861 5861 5860 5860 5860 5859 5858
5863 5864 5864 5864 5864 5864 5864 5865 5865 5865 5865 5865 5865 5865 5865 5865 5865 5865 5865 5865 5865 5865 5864 5864 5863 5862 5862 5861 5860 5860 5861 5861 5861 5861 5861 5861 5861 5861 5861 5861 5860 5860 5860 5859 5859 5858 5857 5857 5857
5862 5862 5863 5863 5863 5863 5863 5863 5864 5864 5864 5864 5864 5864 5864 5864 5864 5864 5864 5863 5863 5863 5862 5862 5861 5860 5859 5858 5858 5858 5858 5859 5859 5859 5859 5859 5859 5859 5859 5859 5859 5858 5858 5857 5857 5856 5856 5856 5855
5861 5861 5861 5862 5862 5862 5862 5862 5862 5863 5863 5863 5862 5862 5863 5863 5863 5863 5862 5862 5861 5861 5861 5860 5859 5858 5857 5856 5855 5856 5856 5857 5857 5857 5857 5857 5857 5857 5857 5857 5857 5856 5856 5856 5855 5855 5854 5854 5853
5860 5860 5860 5860 5860 5861 5861 5861 5861 5861 5861 5861 5861 5861 5861 5861 5861 5861 5861 5861 5860 5859 5859 5858 5857 5857 5856 5855 5854 5854 5855 5855 5856 5856 5855 5855 5855 5855 5855 5855 5855 5854 5854 5854 5853 5852 5852 5852 5851
5858 5859 5859 5859 5859 5859 5859 5860 5859 5859 5860 5860 5860 5860 5859 5859 5859 5859 5859 5859 5858 5857 5857 5857 5856 5855 5854 5854 5854 5853 5853 5853 5854 5854 5854 5854 5853 5853 5853 5853 5853 5852 5852 5851 5851 5850 5850 5849 5849
5857 5858 5858 5858 5857 5858 5859 5858 5858 5857 5858 5858 5858 5858 5858 5857 5858 5858 5858 5857 5856 5856 5856 5855 5854 5854 5853 5853 5852 5852 5852 5852 5852 5852 5852 5852 5851 5851 5851 5851 5850 5850 5849 5849 5848 5848 5847 5847 5846
5856 5856 5856 5856 5856 5855 5856 5856 5856 5855 5855 5856 5856 5856 5856 5856 5856 5856 5855 5855 5855 5854 5854 5853 5853 5852 5852 5851 5851 5850 5850 5850 5850 5850 5850 5849 5849 5849 5849 5848 5848 5847 5847 5846 5845 5845 5844 5844 5843
5854 5854 5853 5854 5853 5853 5853 5853 5854 5853 5853 5854 5854 5854 5854 5854 5854 5853 5853 5853 5853 5852 5852 5851 5851 5850 5850 5849 5849 5849 5848 5848 5848 5848 5847 5847 5847 5846 5846 5846 5845 5845 5844 5843 5843 5842 5841 5841 5840
5852 5851 5851 5852 5851 5851 5851 5851 5851 5851 5851 5851 5851 5851 5851 5851 5851 5851 5851 5851 5850 5850 5850 5849 5849 5848 5848 5847 5847 5847 5846 5846 5846 5846 5845 5845 5844 5844 5843 5843 5842 5842 5841 5840 5840 5839 5838 5837 5837
5849 5849 5849 5849 5848 5848 5848 5848 5848 5848 5848 5848 5848 5848 5848 5848 5848 5848 5848 5848 5848 5847 5847 5847 5847 5847 5846 5845 5845 5844 5844 5844 5844 5843 5843 5842 5842 5841 5840 5840 5839 5838 5838 5837 5836 5836 5835 5834 5833
5846 5846 5846 5846 5846 5845 5845 5846 5846 5845 5845 5845 5844 5844 5844 5844 5844 5844 5845 5845 5845 5845 5845 5845 5844 5844 5843 5843 5842 5842 5841 5841 5841 5841 5840 5840 5839 5838 5837 5836 5835 5835 5834 5833 5833 5832 5831 5830 5829
5843 5843 5843 5842 5842 5842 5843 5842 5843 5842 5841 5841 5841 5841 5841 5841 5841 5841 5841 5841 5841 5841 5841 5841 5841 5841 5840 5840 5840 5839 5839 5838 5838 5837 5837 5836 5835 5834 5833 5833 5832 5831 5830 5829 5829 5828 5827 5826 5825
5840 5840 5840 5839 5838 5839 5839 5838 5840 5838 5838 5837 5837 5837 5837 5837 5837 5837 5838 5838 5838 5838 5838 5838 5838 5838 5837 5837 5836 5836 5835 5835 5834 5834 5833 5832 5832 5831 5830 5829 5828 5827 5826 5826 5825 5824 5823 5822 5821
5837 5837 5836 5836 5835 5835 5835 5834 5835 5834 5834 5834 5833 5833 5833 5833 5833 5833 5833 5834 5834 5834 5834 5834 5834 5834 5834 5833 5833 5832 5832 5831 5831 5830 5829 5828 5827 5827 5826 5825 5824 5823 5822 5821 5820 5820 5819 5818 5817
5834 5834 5833 5832 5831 5832 5832 5830 5831 5831 5830 5830 5829 5829 5829 5829 5829 5829 5829 5829 5830 5830 5830 5830 5830 5830 5830 5829 5829 5828 5828 5827 5826 5826 5825 5824 5823 5822 5821 5820 5819 5818 5817 5816 5816 5815 5814 5813 5812
5830 5830 5830 5829 5828 5828 5827 5826 5828 5827 5826 5826 5825 5825 5824 5824 5824 5824 5825 5825 5825 5825 5825 5825 5825 5825 5825 5825 5824 5824 5823 5822 5822 5821 5820 5819 5819 5818 5817 5816 5815 5813 5812 5811 5811 5810 5809 5808 5807
5826 5826 5826 5825 5824 5823 5823 5823 5824 5823 5822 5822 5821 5821 5820 5820 5820 5820 5820 5820 5820 5820 5820 5820 5820 5820 5820 5820 5819 5819 5818 5817 5817 5816 5815 5814 5813 5812 5811 5810 5809 5808 5807 5806 5805 5804 5803 5802 5802
5822 5822 5821 5821 5819 5819 5819 5820 5820 5819 5818 5818 5817 5816 5816 5816 5816 5815 5815 5815 5815 5815 5815 5815 5815 5815 5814 5814 5813 5813 5812 5811 5811 5810 5809 5808 5808 5806 5805 5804 5803 5802 5801 5800 5799 5798 5797 5797 5796
5819 5818 5817 5816 5816 5815 5815 5818 5816 5815 5814 5813 5812 5812 5811 5811 5810 5810 5809 5809 5809 5809 5809 5809 5809 5808 5808 5808 5807 5806 5806 5805 5804 5803 5803 5802 5801 5800 5799 5798 5797 5796 5795 5794 5793 5792 5791 5791 5790
5813 5813 5813 5812 5811 5810 5810 5814 5811 5810 5809 5808 5807 5806 5806 5805 5804 5804 5804 5804 5803 5803 5803 5803 5802 5802 5801 5801 5800 5800 5799 5798 5797 5796 5795 5795 5794 5793 5792 5791 5790 5789 5788 5787 5786 5786 5785 5784 5784